Weather in Poisevo

Russia / Republic of Tatarstan     55°32′15″N   53°29′34″E
temp.,
°C
wind,
m/s
gust,
m/s
humid.,
%
clouds,
%
prec.,
mm/h
press.,
hPa
HPBL,
m
12 april, mon
mon1200:00+8n2299100 0.2 103344
03:00+6n2499100 2.6 1034113
06:00+5nne3699100 2.9 1036207
09:00+5ne3995100 4.9 1037268
12:00+6ne258997 0.3 1038175
15:00+10ene4668100 0.3 1038561
18:00+8ene3483100 0.0 103865
21:00+6ene3990100 0.0 1039191
13 april, tue
tue1300:00+5ese389498 0.0 1039153
03:00+4e349294 0.0 103962
06:00+5ese3588100 0.0 1039110
09:00+9se356999 0.0 1038215
12:00+11sse237086 0.0 1037311
15:00+16s346363 0.0 1036747
18:00+14sse337752 0.0 103439
21:00+11s358089 0.0 103468
14 april, wed
wed1400:00+9s347859 0.0 103445
03:00+8ssw33846 0.0 103430
06:00+8s348950 0.0 103379
09:00+13s346857 0.0 1032402
12:00+16s455034 0.0 1031802
15:00+17s34455 0.0 1029969
18:00+14sse22585 0.0 102819
21:00+11s33615 0.0 102734
15 april, thu
thu1500:00+9s33615 0.0 102721
03:00+7s33665 0.0 102627
06:00+7s35682 0.0 102591
09:00+13ssw45535 0.0 1024390
12:00+16ssw46470 0.0 1023931
15:00+18sw46440 0.0 10211477
18:00+15s33590 0.0 101927
21:00+12ssw22670 0.0 101913
16 april, fri
fri1600:00+10ssw22725 0.0 101810
03:00+9ssw22755 0.0 101710
06:00+9sw11725 0.0 101710
09:00+14wnw225838 0.0 1016353
12:00+13nw2368100 0.0 1016161
15:00+14n776573 0.3 1016833
18:00+9nne687774 0.1 1018649
21:00+5nne6128135 0.1 1019697